Other Public Products
Issued by NWS Grand Forks, ND

Home | Current Version | Previous Version | Text Only | Print | Product List | Glossary Off
Versions: 1 2 3 4 5 6 7 8 9 10 11 12 13 14 15 16 17 18 19 20 21 22 23 24 25 26 27 28 29 30 31 32 33 34 35 36 37 38 39 40 41 42 43 44 45 46 47 48 49 50

000
FPUS83 KFGF 300310
OPUFGF
PRAIRIE TO PINES WEATHER ROUNDUP
NATIONAL WEATHER SERVICE EASTERN NORTH DAKOTA/GRAND FORKS ND
1000 PM CDT FRI JUL 29 2016

 **SATELLITE DATA USED TO AUGMENT SKY COVER AT AUTOMATED STATIONS**
 *****  WEATHER ACROSS EASTERN NORTH DAKOTA  *****

CITY           SKY/WX    TMP DP  RH WIND       PRES   REMARKS
GRAND FORKS    PTCLDY    71  57  61 E3        29.98S
GRAND FORKS AF CLEAR     66  58  76 CALM      29.99S
GRAND CITY NWS NOT AVBL
BUXTON           N/A     71  62  75 CALM        N/A
DEVILS LAKE    PTCLDY    65  62  90 CALM      30.00S
FARGO          CLEAR     71  62  73 S5        30.00R
WAHPETON ARPT  MOCLDY    66  61  82 SE6       30.02R
$$

 *****  WEATHER ACROSS CENTRAL AND WESTERN NORTH DAKOTA  *****

CITY           SKY/WX    TMP DP  RH WIND       PRES   REMARKS
JAMESTOWN      MOCLDY    68  63  84 SE6       30.00S
BISMARCK       PTCLDY    67  62  84 E7        29.98S
MINOT          PTCLDY    73  59  61 SE7       29.95F
MINOT AFB      PTCLDY    67  57  72 CALM      29.94S
GARRISON         N/A     68  62  81 E3        29.97S
WILLISTON      CLEAR     72  57  59 E7        29.96S
DICKINSON      CLEAR     66  59  78 SE9       29.97R
HETTINGER      CLEAR     70  57  63 E9        29.99S
$$

 *****  OTHER OBSERVATIONS NORTHEAST NORTH DAKOTA  *****

CITY           SKY/WX    TMP DP  RH WIND       PRES   REMARKS
WALHALLA       NOT AVBL
LANGDON        FAIR      63  59  88 SE8       30.01R
CAVALIER       FAIR      64  59  82 CALM      29.98S
GRAFTON        FAIR      66  57  72 CALM      30.00S
CANDO          NOT AVBL
FORT TOTTEN      N/A     67  61  80 SE2       29.95S
ROLLA          FAIR      63  63 100 CALM      30.01R
RUGBY          NOT AVBL
 ***** THE ABOVE OBSERVATIONS ARE NON NWS ARE NOT QUALITY
        CONTROLLED AND MAY MIS-REPORT RAIN FOR SNOW...
$$

 *****  OTHER OBSERVATIONS SOUTHEAST NORTH DAKOTA *****

CITY           SKY/WX    TMP DP  RH WIND       PRES   REMARKS
COOPERSTOWN    NOT AVBL
VALLEY CITY    FAIR      66  66 100 SE5       30.03R
OAKES            N/A    N/A N/A N/A MISG        N/A
GWINNER        FAIR      66  64  94 CALM      30.02R
SHEYENNE NWR     N/A     66  62  86 CALM      29.95S
BUFFALO          N/A     67  63  89 CALM        N/A
WYNDMERE       NOT AVBL
 ***** THE ABOVE OBSERVATIONS ARE NON NWS ARE NOT QUALITY
       CONTROLLED AND MAY MIS-REPORT RAIN FOR SNOW...
$$

  *****  WEATHER ACROSS NORTHERN MINNESOTA  *****

CITY           SKY/WX    TMP DP  RH WIND       PRES   REMARKS
FLAG ISLAND    MOCLDY    73  57  56 CALM      29.99S
WARROAD        NOT AVBL
ROSEAU         CLEAR     64  61  88 CALM      30.01R
HALLOCK        CLEAR     64  61  88 CALM      29.99R
THF RVR FALLS  PTCLDY    66  58  75 CALM      30.02R
HALSTAD          N/A     69  57  65 NE2         N/A
FOSSTON        CLEAR     57  45  62 CALM      30.03R
BAUDETTE       CLEAR     65  56  72 CALM      30.01R
WASKISH        CLEAR     63  61  94 CALM      30.02S FOG
CROOKSTON      CLEAR     68  55  64 CALM      30.00S
$$
  *****  WEATHER ACROSS CENTRAL AND WEST MINNESOTA  *****

CITY           SKY/WX    TMP DP  RH WIND       PRES   REMARKS
BEMIDJI        PTCLDY    67  59  77 S7        30.02S
PARK RAPIDS    CLOUDY    69  61  75 SE7       30.04R
WADENA         NOT AVBL
DETROIT LAKES  PTCLDY    68  63  83 SW3       30.05R
MOORHEAD       PTCLDY    70  64  83 S6        30.02R
FERGUS FALLS   PTCLDY    68  63  83 CALM        N/A
ELBOW LAKE     FAIR      68  63  85 E5        30.04S
MORRIS MN      PTCLDY    66  63  88 S5        30.04R
STAPLES        CLOUDY    66  57  72 CALM      30.05R
WHEATON        CLEAR     66  63  88 SE5       30.05R
$$
  *****  WEATHER ELSEWHERE ACROSS MINNESOTA  *****

CITY           SKY/WX    TMP DP  RH WIND       PRES   REMARKS
DULUTH         CLEAR     59  51  75 E6        30.07S
INTRNTL FALLS  CLOUDY    66  58  75 SE5       30.02S
ELY            CLEAR     63  50  63 CALM      30.07S
CLOQUET        CLEAR     61  50  67 CALM      30.07S
BRAINERD       PTCLDY    67  58  72 SE6       30.06R
HIBBING        CLEAR     58  52  80 CALM      30.07R
ALEXANDRIA     MOCLDY    69  59  70 SE6       30.06R
SAINT CLOUD    CLOUDY    62  59  90 CALM      30.05R
MINNEAPOLIS    PTCLDY    70  55  59 N6        30.03S
$$

  *****  WEATHER ACROSS SOUTH DAKOTA  *****

CITY           SKY/WX    TMP DP  RH WIND       PRES   REMARKS
SIOUX FALLS    PTCLDY    68  56  65 E8        30.05R
BROOKINGS      CLEAR     67  58  72 SE6       30.06R
WATERTOWN      CLEAR     70  57  63 SE6       30.05R
HURON          PTCLDY    70  54  56 SE9       30.01R
SISSETON         N/A     68  62  81 S6        30.02R
ABERDEEN       CLOUDY    68  63  84 SE7       30.00R
MITCHELL       CLEAR     70  55  59 SE8       30.03S
PIERRE         PTCLDY    72  57  59 SE9       29.98R
MOBRIDGE       CLEAR     72  57  59 E3        29.96S
RAPID CITY     CLEAR     67  56  67 SW5       30.01F
$$

  *****  SOME WEATHER IN NEARBY STATES *****

CITY           SKY/WX    TMP DP  RH WIND       PRES   REMARKS
GLASGOW MT     CLEAR     70  59  68 VRB7      29.93F
GREAT FALLS MT CLEAR     78  46  32 E10       29.95F
CHEYENNE WY    CLOUDY    64  53  67 E13       30.18R
SCOTTSBLUFF NE PTCLDY    63  32  31 MISG      30.07R
OMAHA NE       PTCLDY    72  62  71 E8        30.03R
DES MOINES IA  MOCLDY    68  64  87 NW5       30.00R
DAVENPORT IA   PTCLDY    66  64  93 NE6       29.96R
CHICAGO IL     MOCLDY    71  67  87 N9        29.95R
EAU CLAIRE WI  CLEAR     66  61  84 NE3       30.03R
LA CROSSE WI   CLEAR     69  65  86 N3        30.01S
$$

  *****  SOME NATIONAL WEATHER *****

CITY           SKY/WX    TMP DP  RH WIND       PRES   REMARKS
LA GUARDIA NY  MOCLDY    79  68  69 SE7       29.92R
RALEIGH NC     PTCLDY    78  71  79 CALM      29.97R
ATLANTA GA     MOCLDY    81  72  74 W3        30.03R
NEW ORLEANS LA PTCLDY    80  75  84 S5        30.01R
OKLAHOMA CITY  PTCLDY    78  68  71 NE6       29.98R
ALBUQUERQUE NM CLOUDY    72  57  59 S5        30.11F
SALT LAKE CITY PTCLDY    92  36  14 N5        29.93R
LOS ANGELES CA CLEAR     71  62  73 W10       29.78R
BOISE ID       CLEAR     95  38  13 W3        29.80S HX  90
SEATTLE WA     PTCLDY    84  56  38 N8        29.89F
$$

*** WEATHER ACROSS MANITOBA...SASKATCHEWAN AND ONTARIO ***
                ***ONTARIO***

CITY           SKY/WX    TMP DP  RH WIND       PRES   REMARKS
GERALDTON      PTCLDY    61  52  72 W3        30.06S
THUNDER BAY    NOT AVBL
SIOUX LOOKOUT  PTCLDY    55  54  94 CALM      30.03R
TORONTO        MOCLDY    72  57  60 N10       30.01R
BIG TROUT LK   CLEAR     61  57  88 SW2       29.96S
PICKLE LAKE    NOT AVBL
DRYDEN         CLEAR     68  54  60 E3        30.03R
KENORA         MOCLDY    72  54  53 S3        30.02S
$$
                *** MANITOBA***

CITY           SKY/WX    TMP DP  RH WIND       PRES   REMARKS
BRANDON        MOCLDY    70  57  64 SE3       29.96S
DAUPHIN        CLEAR     64  59  82 S6        29.91F
ISLAND LAKE    NOT AVBL
PILOT MOUND    NOT AVBL
THE PAS          N/A     66  61  82 SE8       29.85F
THOMPSON       CLOUDY    63  61  94 VRB2      29.87S
WINNIPEG       PTCLDY    68  55  64 S8        29.97S
LYNN LAKE      CLOUDY    63  59  88 MISG      29.86S
CHURCHILL      MOCLDY    59  48  67 S6        30.01F
GILLAM         CLOUDY    61  48  63 E5        29.95S
$$
                ***SASKATCHEWAN***

CITY           SKY/WX    TMP DP  RH WIND       PRES   REMARKS
ESTEVAN        PTCLDY    66  61  82 W2        29.95F
KINDERSLEY     PTCLDY    68  63  83 SE7       29.90F
LLOYDMINSTER   PTCLDY    70  57  64 SW5       29.85S
PRINCE ALBERT  PTCLDY    70  61  73 S5        29.83F
REGINA         PTCLDY    64  61  88 S7        29.91F
YORKTON        MOCLDY    66  61  82 S5        29.90S  C1F1C2F2C3F3C4F4C5F5C6F6C7F7C8F8C9F9CaFaCbFbCcFcCdFdCe!


USA.gov is the U.S. government's official web portal to all federal, state and local government web resources and services.